• Join FlightAware (Why Join?)
  • Login
  • US Flag 
05:59AM EST


 

Airport Tracker/Info


-or-


 

Live Flight TrackerFlight Track Log ✈ SKW6526 ✈ 04-May-2013 ✈ KLAX - KPHX

Flight Track Log - Related Links

Times and Time Zones

All times are in EDT time to prevent confusion due to time zone crossing. See the SKW6526 flight status page for this flight to view local times or setup timezone preferences in your user account.

Time Position Orientation Groundspeed Altitude Reporting Facility
EDT Latitude Longitude Course Direction KTS MPH feet Rate Location/Type
11:26AM 33.9333 -118.4500 90° East 183 211 1,900  Level Southern California TRACON
11:26AM 33.9200 -118.4711 233° Southwest 211 243 2,600 2,069 Climbing Los Angeles Center
11:27AM 33.8769 -118.5333 230° Southwest 245 282 4,900 2,585 Climbing Los Angeles Center
11:28AM 33.8031 -118.5486 190° South 285 328 7,900 2,878 Climbing Los Angeles Center
11:29AM 33.6811 -118.5033 101° East  Level FlightAware Approximate
11:29AM 33.7256 -118.5281 168° South 290 334 10,800  Level Los Angeles Center
11:30AM 33.6440 -118.3601 116° Southeast  Level FlightAware Approximate
11:30AM 33.6756 -118.4469 127° Southeast 333 383 12,500  Level Los Angeles Center
11:31AM 33.6333 -118.2120 90° East  Level FlightAware Approximate
11:31AM 33.6447 -118.3375 109° East 356 410 14,900  Level Los Angeles Center
11:33AM 33.6444 -118.1992 90° East 354 407 18,000 2,515 Climbing Los Angeles Center
11:34AM 33.6444 -118.0522 90° East 370 426 20,600 1,984 Climbing Los Angeles Center
11:35AM 33.6447 -117.9506 90° East 379 436 22,100 1,707 Climbing Los Angeles Center
11:36AM 33.6439 -117.7897 90° East 402 463 24,100 1,887 Climbing Los Angeles Center
11:37AM 33.6439 -117.6536 90° East 411 473 26,000 1,902 Climbing Los Angeles Center
11:38AM 33.6428 -117.4844 90° East 423 487 28,000 1,561 Climbing Los Angeles Center
11:39AM 33.6419 -117.3414 90° East 431 496 29,200 1,210 Climbing Los Angeles Center
11:40AM 33.6397 -117.1950 91° East 440 506 30,500 1,210 Climbing Los Angeles Center
11:41AM 33.6383 -117.0439 91° East 450 518 31,700 1,317 Climbing Los Angeles Center
11:42AM 33.6333 -116.8939 92° East 452 520 33,200 1,067 Climbing Los Angeles Center
11:43AM 33.6264 -116.7461 93° East 446 513 34,100 662 Climbing Los Angeles Center
11:44AM 33.6167 -116.5575 93° East 468 539 34,700 435 Climbing Los Angeles Center
11:45AM 33.6078 -116.3636 93° East 480 552 35,000 146 Climbing Los Angeles Center
11:46AM 33.5983 -116.2022 94° East 481 554 35,000  Level Los Angeles Center
11:47AM 33.5892 -116.0436 94° East 477 549 35,000  Level Los Angeles Center
11:49AM 33.5814 -115.8886 93° East 468 539 35,000  Level Los Angeles Center
11:50AM 33.5700 -115.7028 94° East 466 536 35,000  Level Los Angeles Center
11:51AM 33.5592 -115.5436 95° East 473 544 35,000  Level Los Angeles Center
11:52AM 33.5494 -115.3856 94° East 475 547 35,000  Level Los Angeles Center
11:53AM 33.5392 -115.2275 94° East 475 547 35,000  Level Los Angeles Center
11:54AM 33.5269 -115.0375 94° East 475 547 35,000  Level Los Angeles Center
11:55AM 33.5156 -114.8503 94° East 471 542 35,000  Level Los Angeles Center
11:56AM 33.5017 -114.6639 95° East 470 541 35,000  Level Los Angeles Center
11:56AM 33.4997 -114.6078 92° East 471 542 35,000 -1,926 Level Albuquerque Center
11:58AM 33.4881 -114.4514 95° East 471 542 32,400 -2,855 Descending Albuquerque Center
11:59AM 33.4786 -114.2897 94° East 478 550 29,100 -3,290 Descending Albuquerque Center
12:00PM 33.4681 -114.1319 95° East 476 548 25,600 -2,000 Descending Albuquerque Center
12:01PM 33.4456 -113.9897 101° East 446 513 25,000 -683 Descending Albuquerque Center
12:02PM 33.4167 -113.8478 104° East 439 505 24,200 -919 Descending Albuquerque Center
12:03PM 33.3892 -113.7083 103° East 433 498 23,100 -1,073 Descending Albuquerque Center
12:04PM 33.3561 -113.5447 104° East 424 488 22,000 -1,024 Descending Albuquerque Center
12:05PM 33.3297 -113.4156 104° East 409 471 21,000 -1,561 Descending Albuquerque Center
12:06PM 33.3036 -113.2942 104° East 386 444 18,800 -2,195 Descending Albuquerque Center
12:07PM 33.2800 -113.1781 104° East 366 421 16,500 -1,854 Descending Albuquerque Center
12:08PM 33.2742 -113.0636 93° East 349 402 15,000 -1,122 Descending Albuquerque Center
12:09PM 33.2775 -112.9533 88° East 337 388 14,200 -1,317 Descending Albuquerque Center
12:10PM 33.2800 -112.8492 88° East 321 369 12,300 -1,610 Descending Albuquerque Center
12:11PM 33.3050 -112.7544 72° East 305 351 10,900 -1,171 Descending Albuquerque Center
12:12PM 33.3356 -112.6711 66° East 281 323 9,900 -976 Descending Albuquerque Center
12:13PM 33.3703 -112.5836 65° Northeast 261 300 8,900 -919 Descending Albuquerque Center
12:14PM 33.3994 -112.5103 65° Northeast 246 283 8,000 -585 Descending Albuquerque Center
12:15PM 33.4275 -112.4386 65° Northeast 240 276 7,700 -780 Descending Albuquerque Center
12:16PM 33.4419 -112.3617 77° East 238 274 6,400 -1,122 Descending Albuquerque Center
12:17PM 33.4414 -112.2853 90° East 231 266 5,400 -1,220 Descending Albuquerque Center
12:18PM 33.4406 -112.2017 91° East 211 243 3,900 -1,122 Descending Albuquerque Center
12:19PM 33.4408 -112.1478 90° East 168 193 3,100 -787 Descending Albuquerque Center